When you browse on this site, cookies collect data to enhance your experience and personalize the content and advertising you see.
Visit our Privacy Policy to learn more. By continuing to use the site, you agree to this use of cookies and data.
  • In Lithuania
  • List of Countries
  • For 7 days
  • Water Temperature
  • Weather Map
  • Weather Widgets
  • user-avatar
    Login

    Hourly Weather Altschwandi

    Today, 30 March, Monday

    Time Temperature Precipitation Wind Pressure Humidity
    00:00 -3°C° 0.7 mm 4 mps 684 mmHg 97%
    01:00 -3°C° 0.7 mm 4 mps 684 mmHg 97%
    02:00 -3°C° 0.3 mm 4 mps 684 mmHg 96%
    03:00 -4°C° 0.3 mm 4 mps 683 mmHg 95%
    04:00 -4°C° 0.3 mm 4 mps 683 mmHg 94%
    05:00 -4°C° 0.2 mm 4 mps 683 mmHg 93%
    06:00 -5°C° 0.2 mm 4 mps 684 mmHg 93%
    07:00 -5°C° 0.2 mm 4 mps 684 mmHg 92%
    08:00 -4°C° 0.1 mm 4 mps 684 mmHg 90%
    09:00 -4°C° 0.1 mm 4 mps 684 mmHg 87%
    10:00 -4°C° 0.1 mm 5 mps 684 mmHg 85%
    11:00 -2°C° 0.1 mm 5 mps 684 mmHg 81%
    12:00 -2°C° 0.1 mm 5 mps 684 mmHg 78%
    13:00 -1°C° 0.1 mm 5 mps 684 mmHg 75%
    14:00 0°C° 0.1 mm 5 mps 684 mmHg 73%
    15:00 0°C° 0.1 mm 5 mps 684 mmHg 72%
    16:00 0°C° 0.1 mm 4 mps 684 mmHg 70%
    17:00 -1°C° 0.1 mm 4 mps 684 mmHg 71%
    18:00 -1°C° 0.1 mm 3 mps 684 mmHg 72%
    19:00 -4°C° 0.1 mm 3 mps 684 mmHg 73%
    20:00 -4°C° 0 mm 2 mps 684 mmHg 75%
    21:00 -5°C° 0 mm 2 mps 684 mmHg 76%
    22:00 -6°C° 0 mm 2 mps 684 mmHg 78%
    23:00 -7°C° 0 mm 2 mps 684 mmHg 79%

    Tomorrow, 31 March, Tuesday

    Time Temperature Precipitation Wind Pressure Humidity
    00:00 -6°C° 0 mm 1 mps 684 mmHg 81%
    01:00 -6°C° 0 mm 1 mps 684 mmHg 82%
    02:00 -7°C° 0 mm 1 mps 684 mmHg 83%
    03:00 -7°C° 0 mm 1 mps 684 mmHg 84%
    04:00 -7°C° 0 mm 1 mps 684 mmHg 86%
    05:00 -7°C° 0 mm 1 mps 684 mmHg 84%
    06:00 -6°C° 0 mm 1 mps 685 mmHg 82%
    07:00 -6°C° 0 mm 1 mps 685 mmHg 80%
    08:00 -5°C° 0 mm 2 mps 685 mmHg 72%
    09:00 -2°C° 0 mm 2 mps 686 mmHg 63%
    10:00 0°C° 0 mm 3 mps 686 mmHg 54%
    11:00 +1°C° 0 mm 3 mps 686 mmHg 54%
    12:00 +2°C° 0 mm 3 mps 686 mmHg 53%
    13:00 +3°C° 0 mm 4 mps 687 mmHg 53%
    14:00 +3°C° 0 mm 4 mps 686 mmHg 54%
    15:00 +3°C° 0 mm 4 mps 686 mmHg 55%
    16:00 +3°C° 0 mm 4 mps 686 mmHg 56%
    17:00 +1°C° 0 mm 3 mps 686 mmHg 62%
    18:00 0°C° 0 mm 3 mps 686 mmHg 68%
    19:00 -2°C° 0 mm 2 mps 686 mmHg 74%
    20:00 -3°C° 0 mm 2 mps 686 mmHg 77%
    21:00 -4°C° 0 mm 2 mps 686 mmHg 80%
    22:00 -5°C° 0 mm 2 mps 686 mmHg 83%
    23:00 -6°C° 0 mm 2 mps 686 mmHg 83%

    Day after tomorrow, 1 April, Wednesday

    Time Temperature Precipitation Wind Pressure Humidity
    00:00 -4°C° 0 mm 1 mps 685 mmHg 83%
    01:00 -6°C° 0 mm 1 mps 685 mmHg 83%
    02:00 -6°C° 0 mm 1 mps 685 mmHg 84%
    03:00 -6°C° 0 mm 1 mps 684 mmHg 84%
    04:00 -6°C° 0 mm 1 mps 684 mmHg 84%
    05:00 -6°C° 0 mm 0 mps 684 mmHg 82%
    06:00 -6°C° 0 mm 0 mps 684 mmHg 80%
    07:00 -5°C° 0 mm 0 mps 684 mmHg 78%
    08:00 -3°C° 0 mm 0 mps 684 mmHg 70%
    09:00 +1°C° 0 mm 1 mps 684 mmHg 63%
    10:00 +4°C° 0 mm 1 mps 684 mmHg 56%
    11:00 +5°C° 0 mm 1 mps 684 mmHg 53%
    12:00 +7°C° 0 mm 1 mps 684 mmHg 50%
    13:00 +8°C° 0 mm 1 mps 684 mmHg 48%
    14:00 +8°C° 0 mm 1 mps 684 mmHg 47%
    15:00 +8°C° 0 mm 1 mps 683 mmHg 47%
    16:00 +8°C° 0 mm 1 mps 683 mmHg 47%
    17:00 +6°C° 0 mm 1 mps 682 mmHg 54%
    18:00 +2°C° 0 mm 0 mps 682 mmHg 62%
    19:00 0°C° 0 mm 0 mps 682 mmHg 70%
    20:00 -1°C° 0 mm 0 mps 682 mmHg 72%
    21:00 0°C° 0 mm 1 mps 682 mmHg 75%
    22:00 -1°C° 0 mm 1 mps 682 mmHg 78%
    23:00 -1°C° 0 mm 1 mps 682 mmHg 79%

    2 April, Thursday

    Time Temperature Precipitation Wind Pressure Humidity
    00:00 -2°C° 0 mm 1 mps 681 mmHg 80%
    01:00 -2°C° 0 mm 1 mps 681 mmHg 81%
    02:00 -2°C° 0 mm 1 mps 681 mmHg 82%
    03:00 -2°C° 0 mm 1 mps 681 mmHg 82%
    04:00 -2°C° 0 mm 1 mps 680 mmHg 82%
    05:00 -2°C° 0 mm 1 mps 680 mmHg 81%
    06:00 -2°C° 0 mm 0 mps 681 mmHg 79%
    07:00 -2°C° 0 mm 0 mps 681 mmHg 77%
    08:00 +1°C° 0 mm 0 mps 681 mmHg 70%
    09:00 +4°C° 0 mm 0 mps 681 mmHg 64%
    10:00 +7°C° 0 mm 1 mps 681 mmHg 57%
    11:00 +8°C° 0 mm 1 mps 681 mmHg 55%
    12:00 +9°C° 0 mm 1 mps 681 mmHg 53%
    13:00 +10°C° 0 mm 1 mps 681 mmHg 51%
    14:00 +10°C° 0 mm 1 mps 680 mmHg 52%
    15:00 +10°C° 0 mm 1 mps 680 mmHg 53%
    16:00 +9°C° 0 mm 2 mps 680 mmHg 53%
    17:00 +8°C° 0 mm 1 mps 679 mmHg 61%
    18:00 +5°C° 0 mm 1 mps 679 mmHg 69%
    19:00 +3°C° 0 mm 1 mps 679 mmHg 76%
    20:00 +3°C° 0 mm 1 mps 679 mmHg 77%
    21:00 +2°C° 0 mm 1 mps 679 mmHg 78%
    22:00 +1°C° 0 mm 1 mps 680 mmHg 80%
    23:00 +1°C° 0 mm 1 mps 680 mmHg 81%

    3 April, Friday

    Time Temperature Precipitation Wind Pressure Humidity
    00:00 +1°C° 0 mm 1 mps 680 mmHg 82%
    01:00 0°C° 0 mm 1 mps 680 mmHg 83%
    02:00 +1°C° 0 mm 1 mps 680 mmHg 82%
    03:00 +1°C° 0 mm 1 mps 680 mmHg 82%
    04:00 0°C° 0 mm 0 mps 680 mmHg 82%
    05:00 0°C° 0 mm 0 mps 680 mmHg 83%
    06:00 0°C° 0 mm 0 mps 680 mmHg 84%
    07:00 0°C° 0 mm 0 mps 681 mmHg 85%
    08:00 +2°C° 0 mm 1 mps 681 mmHg 80%
    09:00 +4°C° 0 mm 1 mps 681 mmHg 74%
    10:00 +6°C° 0 mm 1 mps 681 mmHg 69%
    11:00 +6°C° 0 mm 1 mps 682 mmHg 65%
    12:00 +7°C° 0 mm 1 mps 682 mmHg 61%
    13:00 +7°C° 0 mm 2 mps 682 mmHg 57%
    14:00 +8°C° 0 mm 1 mps 682 mmHg 57%
    15:00 +8°C° 0 mm 1 mps 682 mmHg 57%
    16:00 +8°C° 0 mm 1 mps 682 mmHg 57%
    17:00 +6°C° 0 mm 1 mps 682 mmHg 65%
    18:00 +5°C° 0 mm 1 mps 682 mmHg 73%
    19:00 +2°C° 0 mm 0 mps 682 mmHg 81%
    20:00 +3°C° 0 mm 1 mps 683 mmHg 83%
    21:00 +2°C° 0 mm 1 mps 684 mmHg 85%
    22:00 +1°C° 0 mm 1 mps 684 mmHg 87%
    23:00 +1°C° 0 mm 1 mps 684 mmHg 89%

    4 April, Saturday

    Time Temperature Precipitation Wind Pressure Humidity
    00:00 0°C° 0 mm 1 mps 684 mmHg 91%
    01:00 0°C° 0 mm 1 mps 684 mmHg 93%
    02:00 -1°C° 0 mm 1 mps 684 mmHg 93%
    03:00 -1°C° 0 mm 1 mps 684 mmHg 93%
    04:00 -2°C° 0 mm 1 mps 684 mmHg 93%
    05:00 -1°C° 0 mm 1 mps 685 mmHg 92%
    06:00 -1°C° 0 mm 1 mps 685 mmHg 90%
    07:00 -1°C° 0 mm 1 mps 685 mmHg 89%
    08:00 +2°C° 0 mm 1 mps 686 mmHg 80%
    09:00 +4°C° 0 mm 1 mps 686 mmHg 72%
    10:00 +6°C° 0 mm 2 mps 686 mmHg 63%
    11:00 +7°C° 0 mm 2 mps 686 mmHg 59%
    12:00 +8°C° 0 mm 2 mps 687 mmHg 55%
    13:00 +10°C° 0 mm 2 mps 687 mmHg 51%
    14:00 +10°C° 0 mm 2 mps 687 mmHg 52%
    15:00 +10°C° 0 mm 2 mps 686 mmHg 52%
    16:00 +10°C° 0 mm 2 mps 686 mmHg 53%
    17:00 +8°C° 0 mm 2 mps 686 mmHg 63%
    18:00 +6°C° 0 mm 2 mps 686 mmHg 74%
    19:00 +4°C° 0 mm 1 mps 686 mmHg 84%
    20:00 +4°C° 0 mm 1 mps 686 mmHg 85%
    21:00 +3°C° 0 mm 1 mps 687 mmHg 87%
    22:00 +2°C° 0 mm 1 mps 687 mmHg 88%
    23:00 +2°C° 0 mm 1 mps 687 mmHg 88%
    Show more